01/02/2017,	00:00:00,	24.902,	18.500,	1016.296,	0.000,	3.967,	0.328,	0.087,	3.429,	0.306,	0.059,	0.039,	737.564,	708.329,	1208.659,	219.820,	3.993,	0.952,	3.877,	0.830,	5.295,	0.925,	5.673,	0.956,	0.981,	0.434,	0.771,	0.354,	0.913,	0.435,	0.897,	0.427,	0.000,	188.919,	175.824,	187.889,	174.715,	186.977,	188.897,	178.005,	172.491
01/02/2017,	00:15:00,	24.927,	18.600,	1016.235,	0.000,	4.065,	0.328,	0.085,	3.354,	0.306,	0.061,	0.037,	739.390,	710.584,	1212.931,	219.660,	4.046,	0.945,	4.035,	0.881,	5.315,	0.948,	5.622,	1.029,	0.947,	0.399,	0.765,	0.344,	0.872,	0.419,	0.867,	0.396,	0.000,	189.811,	175.218,	188.963,	175.182,	186.853,	190.242,	178.100,	173.462
01/02/2017,	00:30:00,	24.951,	18.700,	1016.724,	0.000,	3.998,	0.330,	0.081,	3.451,	0.276,	0.066,	0.043,	737.633,	708.769,	1209.634,	219.406,	4.057,	0.963,	3.957,	0.879,	5.211,	0.918,	5.702,	0.994,	0.985,	0.449,	0.735,	0.336,	0.863,	0.398,	0.892,	0.434,	0.000,	188.576,	175.405,	188.391,	174.536,	187.055,	189.374,	177.862,	173.081
01/02/2017,	00:45:00,	25.024,	18.900,	1016.541,	0.000,	3.903,	0.328,	0.099,	3.280,	0.327,	0.088,	0.055,	738.970,	710.726,	1212.143,	219.980,	4.062,	0.887,	4.011,	0.821,	5.330,	0.898,	5.628,	0.961,	0.976,	0.458,	0.771,	0.376,	0.841,	0.404,	0.922,	0.425,	0.000,	189.723,	176.248,	188.396,	175.678,	187.051,	189.337,	177.982,	172.949
01/02/2017,	01:00:00,	25.122,	19.000,	1016.174,	0.000,	4.003,	0.314,	0.071,	3.339,	0.241,	0.050,	0.032,	737.900,	708.416,	1210.274,	218.956,	3.966,	0.929,	3.909,	0.891,	5.205,	0.907,	5.472,	0.946,	1.012,	0.449,	0.775,	0.325,	0.828,	0.395,	0.879,	0.382,	0.000,	189.462,	176.168,	188.243,	174.555,	187.215,	188.775,	177.251,	172.387
01/02/2017,	01:15:00,	25.122,	19.200,	1015.747,	0.000,	3.977,	0.342,	0.096,	3.253,	0.251,	0.063,	0.042,	739.958,	710.638,	1212.603,	220.436,	4.094,	0.922,	3.957,	0.850,	5.312,	0.895,	5.584,	0.946,	0.980,	0.422,	0.775,	0.364,	0.887,	0.389,	0.834,	0.379,	0.000,	190.236,	176.345,	188.300,	174.394,	187.951,	189.761,	177.717,	173.557
01/02/2017,	01:30:00,	25.146,	19.400,	1015.564,	0.000,	3.961,	0.335,	0.085,	3.351,	0.286,	0.061,	0.037,	739.069,	709.610,	1211.586,	219.973,	4.041,	0.949,	3.849,	0.844,	5.254,	0.893,	5.561,	1.002,	0.963,	0.432,	0.774,	0.370,	0.862,	0.430,	0.839,	0.406,	0.000,	189.465,	175.893,	187.583,	173.889,	187.617,	190.268,	178.624,	173.078
01/02/2017,	01:45:00,	25.146,	19.600,	1015.869,	0.000,	4.060,	0.310,	0.079,	3.261,	0.267,	0.071,	0.047,	738.168,	708.889,	1209.886,	219.814,	3.976,	0.879,	3.938,	0.871,	5.274,	0.884,	5.564,	0.935,	0.907,	0.388,	0.739,	0.337,	0.857,	0.392,	0.932,	0.426,	0.000,	188.849,	175.557,	188.392,	174.551,	187.096,	188.773,	178.135,	173.438
01/02/2017,	02:00:00,	25.098,	19.900,	1015.381,	0.000,	3.952,	0.320,	0.088,	3.245,	0.257,	0.069,	0.047,	736.455,	708.741,	1208.648,	219.362,	3.910,	0.821,	3.853,	0.855,	5.126,	0.910,	5.617,	0.954,	0.975,	0.425,	0.815,	0.368,	0.807,	0.375,	0.907,	0.409,	0.000,	188.961,	176.403,	187.167,	173.801,	186.751,	189.451,	177.801,	172.507
01/02/2017,	02:15:00,	25.049,	20.100,	1015.320,	0.000,	3.893,	0.297,	0.082,	3.157,	0.246,	0.057,	0.038,	738.101,	710.537,	1211.704,	219.775,	3.962,	0.877,	3.954,	0.823,	5.078,	0.843,	5.464,	0.916,	0.945,	0.397,	0.749,	0.328,	0.838,	0.392,	0.852,	0.396,	0.000,	188.711,	175.839,	188.467,	174.881,	187.459,	189.732,	177.604,	173.390
01/02/2017,	02:30:00,	24.976,	20.400,	1015.320,	0.000,	4.084,	0.338,	0.096,	3.347,	0.285,	0.078,	0.052,	738.645,	709.654,	1211.338,	219.633,	3.960,	0.933,	4.004,	0.849,	5.299,	0.929,	5.580,	0.988,	1.019,	0.443,	0.810,	0.382,	0.886,	0.444,	0.877,	0.412,	0.000,	189.526,	176.557,	187.796,	174.560,	187.351,	189.293,	178.330,	172.764
01/02/2017,	02:45:00,	25.024,	20.600,	1015.076,	0.000,	3.991,	0.350,	0.079,	3.352,	0.265,	0.054,	0.034,	738.374,	707.891,	1210.025,	218.934,	4.074,	0.863,	3.933,	0.829,	5.149,	0.890,	5.455,	0.951,	0.937,	0.397,	0.801,	0.347,	0.879,	0.408,	0.884,	0.406,	0.000,	189.417,	175.568,	189.485,	174.522,	186.513,	188.983,	177.207,	172.314
01/02/2017,	03:00:00,	24.951,	20.900,	1015.015,	0.000,	3.911,	0.307,	0.075,	3.305,	0.268,	0.053,	0.037,	738.401,	709.348,	1210.046,	220.236,	4.132,	0.937,	3.866,	0.789,	5.268,	0.914,	5.375,	0.873,	1.009,	0.417,	0.805,	0.346,	0.894,	0.416,	0.887,	0.385,	0.000,	189.523,	175.755,	188.342,	174.527,	186.692,	189.392,	177.989,	173.128
01/02/2017,	03:15:00,	24.927,	21.100,	1014.954,	0.000,	4.092,	0.329,	0.097,	3.299,	0.279,	0.071,	0.048,	742.173,	710.485,	1214.254,	220.819,	4.047,	0.914,	3.981,	0.852,	5.416,	0.930,	5.630,	1.006,	1.013,	0.443,	0.815,	0.392,	0.884,	0.432,	0.877,	0.407,	0.000,	190.991,	176.157,	189.489,	175.969,	187.314,	188.251,	178.739,	173.593
01/02/2017,	03:30:00,	24.878,	21.300,	1015.137,	0.000,	4.035,	0.329,	0.092,	3.388,	0.277,	0.063,	0.046,	739.189,	709.462,	1211.373,	219.934,	4.052,	0.950,	3.979,	0.875,	5.202,	0.892,	5.569,	0.979,	0.938,	0.397,	0.795,	0.355,	0.893,	0.424,	0.947,	0.426,	0.000,	189.799,	175.778,	188.672,	175.012,	186.827,	188.327,	178.208,	173.889
01/02/2017,	03:45:00,	24.805,	21.500,	1015.076,	0.000,	3.892,	0.316,	0.089,	3.249,	0.275,	0.071,	0.044,	741.217,	710.084,	1213.356,	220.598,	3.959,	0.890,	3.835,	0.849,	5.356,	0.888,	5.695,	0.984,	0.967,	0.416,	0.820,	0.367,	0.822,	0.433,	0.883,	0.425,	0.000,	190.311,	175.657,	188.906,	175.271,	187.936,	188.965,	178.209,	173.631
01/02/2017,	04:00:00,	24.902,	21.700,	1014.771,	0.000,	4.098,	0.358,	0.077,	3.328,	0.275,	0.069,	0.038,	740.646,	710.077,	1213.071,	220.269,	4.069,	0.932,	3.949,	0.841,	5.252,	0.901,	5.530,	0.961,	0.989,	0.455,	0.803,	0.372,	0.885,	0.433,	0.884,	0.394,	0.000,	190.515,	176.919,	188.692,	174.839,	187.275,	188.310,	178.520,	173.501
01/02/2017,	04:15:00,	24.902,	21.800,	1014.771,	0.000,	3.994,	0.323,	0.069,	3.291,	0.263,	0.050,	0.034,	738.865,	708.235,	1210.164,	219.520,	4.061,	0.914,	3.934,	0.790,	5.271,	0.887,	5.499,	0.951,	0.931,	0.387,	0.819,	0.350,	0.861,	0.405,	0.838,	0.380,	0.000,	189.242,	175.367,	188.811,	174.868,	187.157,	188.123,	177.887,	173.308
01/02/2017,	04:30:00,	24.731,	22.000,	1014.587,	0.000,	4.013,	0.306,	0.082,	3.434,	0.283,	0.059,	0.040,	738.516,	711.533,	1212.616,	220.170,	4.072,	0.957,	3.845,	0.829,	5.368,	0.964,	5.643,	1.008,	0.876,	0.375,	0.775,	0.344,	0.833,	0.422,	0.879,	0.404,	0.000,	189.561,	177.184,	187.925,	174.893,	187.719,	188.949,	177.570,	174.094
01/02/2017,	04:45:00,	24.829,	22.100,	1014.771,	0.000,	3.966,	0.357,	0.096,	3.375,	0.267,	0.061,	0.040,	739.162,	708.969,	1209.926,	220.947,	3.953,	0.912,	3.995,	0.880,	5.395,	0.972,	5.400,	0.987,	0.948,	0.398,	0.824,	0.373,	0.891,	0.436,	0.907,	0.399,	0.000,	189.529,	176.124,	188.490,	174.800,	186.764,	187.979,	178.631,	173.601
01/02/2017,	05:00:00,	24.878,	22.100,	1015.137,	0.000,	4.046,	0.323,	0.086,	3.321,	0.293,	0.069,	0.047,	740.899,	710.132,	1213.102,	220.511,	3.927,	0.881,	3.984,	0.840,	5.372,	0.933,	5.560,	1.007,	1.060,	0.455,	0.753,	0.356,	0.889,	0.440,	0.904,	0.415,	0.000,	190.708,	176.361,	188.046,	174.916,	187.983,	188.826,	178.475,	173.540
01/02/2017,	05:15:00,	24.707,	22.300,	1014.832,	0.000,	4.069,	0.356,	0.093,	3.231,	0.290,	0.082,	0.049,	740.436,	709.830,	1213.353,	219.553,	3.981,	0.888,	3.999,	0.883,	5.330,	0.892,	5.546,	0.983,	0.987,	0.458,	0.800,	0.375,	0.835,	0.406,	0.883,	0.422,	0.000,	190.018,	176.404,	188.878,	174.491,	187.426,	188.980,	178.447,	173.382
01/02/2017,	05:30:00,	24.756,	22.300,	1014.709,	0.000,	3.924,	0.333,	0.105,	3.375,	0.266,	0.069,	0.050,	741.757,	710.263,	1213.643,	221.124,	4.050,	0.929,	3.882,	0.814,	5.137,	0.913,	5.649,	0.974,	0.958,	0.423,	0.832,	0.389,	0.867,	0.408,	0.830,	0.398,	0.000,	189.907,	175.811,	189.396,	175.758,	188.273,	188.769,	178.376,	173.467
01/02/2017,	05:45:00,	24.854,	22.400,	1014.587,	0.000,	3.999,	0.349,	0.082,	3.349,	0.271,	0.063,	0.036,	738.977,	708.950,	1209.948,	220.645,	4.113,	0.926,	3.962,	0.866,	5.222,	0.905,	5.578,	1.017,	0.975,	0.436,	0.789,	0.346,	0.833,	0.425,	0.910,	0.426,	0.000,	189.661,	176.067,	188.717,	175.071,	186.170,	187.820,	178.687,	173.517
01/02/2017,	06:00:00,	24.683,	22.400,	1014.526,	0.000,	4.120,	0.346,	0.092,	3.367,	0.299,	0.079,	0.038,	740.303,	710.506,	1212.668,	220.576,	4.042,	0.936,	3.968,	0.893,	5.424,	0.951,	5.734,	0.992,	1.000,	0.434,	0.780,	0.373,	0.868,	0.436,	0.887,	0.420,	0.000,	190.328,	177.509,	188.606,	174.871,	187.019,	188.005,	178.715,	173.689
01/02/2017,	06:15:00,	24.731,	22.400,	1014.587,	0.000,	3.947,	0.316,	0.080,	3.309,	0.287,	0.069,	0.041,	742.156,	710.855,	1214.493,	221.123,	3.895,	0.843,	4.005,	0.873,	5.321,	0.929,	5.567,	0.953,	0.930,	0.413,	0.802,	0.344,	0.858,	0.417,	0.905,	0.403,	0.000,	190.002,	175.983,	189.298,	175.854,	187.942,	188.525,	179.092,	173.983
01/02/2017,	06:30:00,	24.756,	22.500,	1014.526,	0.000,	3.910,	0.344,	0.097,	3.347,	0.297,	0.068,	0.041,	739.320,	709.007,	1211.177,	219.758,	4.049,	0.933,	3.967,	0.833,	5.275,	0.912,	5.495,	0.959,	0.984,	0.429,	0.769,	0.355,	0.893,	0.437,	0.930,	0.398,	0.000,	189.879,	175.903,	188.765,	174.940,	187.356,	188.320,	177.515,	173.367
01/02/2017,	06:45:00,	24.707,	22.500,	1014.771,	0.000,	4.001,	0.346,	0.085,	3.368,	0.283,	0.073,	0.052,	737.196,	708.008,	1208.574,	219.404,	4.012,	0.883,	4.046,	0.916,	4.989,	0.885,	5.596,	0.979,	0.947,	0.403,	0.780,	0.363,	0.887,	0.422,	0.915,	0.393,	0.000,	189.610,	175.624,	187.586,	174.548,	186.281,	187.930,	177.980,	173.454
01/02/2017,	07:00:00,	24.829,	22.500,	1014.709,	0.000,	4.019,	0.364,	0.089,	3.255,	0.269,	0.071,	0.040,	740.080,	708.887,	1211.239,	220.518,	4.019,	0.933,	3.900,	0.853,	5.280,	0.911,	5.560,	0.979,	0.994,	0.444,	0.848,	0.388,	0.839,	0.409,	0.822,	0.402,	0.000,	189.836,	175.400,	189.313,	175.300,	186.955,	188.313,	178.259,	173.300
01/02/2017,	07:15:00,	24.805,	22.400,	1014.709,	0.000,	4.094,	0.364,	0.089,	3.355,	0.297,	0.076,	0.040,	739.892,	711.242,	1213.284,	220.453,	4.022,	0.947,	3.951,	0.892,	5.352,	0.912,	5.627,	0.978,	0.979,	0.426,	0.764,	0.365,	0.902,	0.422,	0.892,	0.405,	0.000,	190.126,	176.782,	188.708,	175.479,	187.641,	189.073,	177.799,	173.468
01/02/2017,	07:30:00,	24.780,	22.400,	1014.648,	0.000,	3.997,	0.341,	0.101,	3.324,	0.258,	0.068,	0.052,	739.185,	709.736,	1211.918,	219.720,	3.990,	0.906,	3.912,	0.841,	5.325,	0.911,	5.555,	1.009,	0.999,	0.450,	0.773,	0.359,	0.851,	0.406,	0.875,	0.405,	0.000,	189.663,	176.380,	188.642,	175.324,	186.904,	188.725,	178.276,	172.794
01/02/2017,	07:45:00,	24.780,	22.400,	1014.709,	0.000,	3.972,	0.327,	0.099,	3.291,	0.307,	0.075,	0.049,	738.058,	707.216,	1207.932,	219.953,	4.024,	0.870,	3.936,	0.798,	5.361,	0.976,	5.589,	1.019,	0.911,	0.408,	0.794,	0.367,	0.868,	0.403,	0.888,	0.408,	0.000,	190.076,	175.262,	188.340,	175.212,	186.241,	188.229,	177.632,	171.963
01/02/2017,	08:00:00,	24.707,	22.400,	1014.832,	0.000,	4.098,	0.356,	0.099,	3.259,	0.287,	0.071,	0.055,	740.654,	708.708,	1211.359,	220.756,	4.035,	0.937,	3.976,	0.885,	5.237,	0.927,	5.640,	1.026,	0.965,	0.427,	0.788,	0.363,	0.808,	0.411,	0.933,	0.441,	0.000,	190.759,	175.670,	188.922,	175.320,	186.958,	187.662,	178.406,	173.504
01/02/2017,	08:15:00,	24.780,	22.300,	1014.893,	0.000,	3.951,	0.319,	0.089,	3.268,	0.266,	0.075,	0.051,	737.397,	706.706,	1206.949,	219.841,	3.967,	0.884,	3.865,	0.830,	5.365,	0.885,	5.549,	0.944,	0.961,	0.386,	0.760,	0.347,	0.812,	0.394,	0.861,	0.408,	0.000,	188.767,	175.378,	189.118,	174.805,	186.659,	187.142,	177.044,	172.811
01/02/2017,	08:30:00,	24.756,	22.300,	1015.259,	0.000,	3.956,	0.325,	0.090,	3.184,	0.263,	0.066,	0.043,	737.057,	706.778,	1207.498,	219.312,	3.960,	0.877,	3.867,	0.852,	5.165,	0.949,	5.413,	0.905,	0.969,	0.426,	0.793,	0.355,	0.877,	0.421,	0.919,	0.428,	0.000,	188.914,	175.473,	188.345,	174.350,	186.517,	187.669,	177.497,	172.635
01/02/2017,	08:45:00,	24.683,	22.200,	1015.625,	0.000,	3.805,	0.313,	0.090,	3.324,	0.283,	0.062,	0.049,	735.559,	706.101,	1205.209,	219.186,	4.108,	0.891,	3.905,	0.812,	5.184,	0.873,	5.559,	0.968,	0.957,	0.418,	0.807,	0.391,	0.818,	0.405,	0.806,	0.368,	0.000,	188.525,	175.422,	187.473,	174.132,	185.873,	187.967,	177.759,	172.073
01/02/2017,	09:00:00,	24.756,	22.100,	1015.991,	0.000,	4.066,	0.352,	0.093,	3.361,	0.298,	0.063,	0.040,	734.035,	704.060,	1202.546,	218.404,	3.936,	0.935,	3.926,	0.844,	5.316,	0.946,	5.553,	1.000,	0.987,	0.463,	0.815,	0.393,	0.865,	0.442,	0.884,	0.416,	0.000,	188.468,	175.184,	186.838,	173.689,	185.662,	187.523,	177.418,	171.171
01/02/2017,	09:15:00,	24.683,	22.100,	1016.052,	0.000,	3.958,	0.333,	0.073,	3.356,	0.272,	0.049,	0.031,	735.722,	705.151,	1205.198,	218.600,	4.034,	0.915,	3.899,	0.835,	5.179,	0.954,	5.619,	1.014,	0.875,	0.402,	0.765,	0.368,	0.790,	0.375,	0.869,	0.374,	0.000,	188.808,	174.935,	187.667,	174.648,	185.429,	187.156,	178.008,	171.913
01/02/2017,	09:30:00,	24.634,	22.100,	1016.418,	0.000,	3.881,	0.316,	0.077,	3.313,	0.289,	0.069,	0.043,	735.145,	704.857,	1204.021,	218.652,	4.011,	0.896,	3.867,	0.838,	5.327,	0.941,	5.487,	0.964,	0.984,	0.408,	0.834,	0.377,	0.854,	0.401,	0.879,	0.385,	0.000,	189.421,	174.285,	188.105,	173.855,	185.524,	188.545,	176.246,	171.668
01/02/2017,	09:45:00,	24.585,	22.000,	1016.479,	0.000,	3.941,	0.291,	0.090,	3.258,	0.288,	0.074,	0.045,	734.659,	705.863,	1204.172,	218.992,	4.030,	0.870,	3.912,	0.812,	5.181,	0.852,	5.598,	1.012,	1.002,	0.432,	0.740,	0.334,	0.857,	0.402,	0.854,	0.388,	0.000,	188.687,	175.418,	187.450,	174.071,	185.477,	187.739,	177.233,	172.062
01/02/2017,	10:00:00,	24.634,	21.900,	1016.724,	0.000,	3.952,	0.329,	0.100,	3.204,	0.295,	0.073,	0.050,	732.612,	703.127,	1200.935,	217.518,	4.022,	0.923,	3.892,	0.830,	5.228,	0.876,	5.587,	0.968,	0.965,	0.436,	0.817,	0.381,	0.864,	0.411,	0.851,	0.384,	0.000,	187.967,	174.424,	186.876,	173.793,	185.330,	186.470,	176.667,	171.818
01/02/2017,	10:15:00,	24.634,	21.800,	1017.029,	0.000,	4.001,	0.332,	0.093,	3.289,	0.286,	0.068,	0.052,	733.169,	704.736,	1202.527,	218.317,	3.982,	0.865,	3.885,	0.858,	5.190,	0.883,	5.442,	0.938,	0.945,	0.427,	0.793,	0.383,	0.837,	0.385,	0.883,	0.399,	0.000,	188.492,	175.256,	187.141,	173.812,	185.110,	186.892,	176.687,	172.250
01/02/2017,	10:30:00,	24.561,	21.800,	1017.090,	0.000,	3.950,	0.288,	0.073,	3.207,	0.278,	0.059,	0.034,	737.939,	704.692,	1207.162,	218.069,	3.949,	0.859,	3.947,	0.813,	5.232,	0.897,	5.659,	0.986,	0.964,	0.399,	0.773,	0.364,	0.852,	0.388,	0.837,	0.385,	0.000,	189.154,	174.035,	188.244,	174.489,	187.338,	187.780,	177.369,	171.768
01/02/2017,	10:45:00,	24.512,	21.700,	1017.090,	0.000,	4.191,	0.349,	0.086,	3.390,	0.288,	0.061,	0.037,	736.110,	706.174,	1205.379,	219.646,	3.954,	0.924,	4.073,	0.901,	5.277,	0.983,	5.677,	1.060,	0.945,	0.423,	0.779,	0.375,	0.865,	0.392,	0.887,	0.427,	0.000,	189.020,	175.248,	188.353,	174.318,	185.395,	187.217,	177.790,	172.961
01/02/2017,	11:00:00,	24.414,	21.600,	1017.151,	0.000,	3.954,	0.324,	0.080,	3.216,	0.252,	0.056,	0.035,	733.062,	703.762,	1201.517,	218.028,	3.980,	0.867,	3.935,	0.835,	5.272,	0.888,	5.505,	0.963,	0.948,	0.432,	0.806,	0.356,	0.810,	0.403,	0.887,	0.401,	0.000,	188.792,	175.038,	186.565,	173.411,	184.858,	186.875,	177.058,	171.806
01/02/2017,	11:15:00,	24.316,	21.600,	1017.456,	0.000,	3.954,	0.312,	0.079,	3.364,	0.274,	0.073,	0.043,	735.208,	703.408,	1203.326,	217.863,	3.972,	0.874,	4.018,	0.861,	5.300,	0.937,	5.624,	1.011,	0.923,	0.405,	0.792,	0.346,	0.884,	0.420,	0.889,	0.410,	0.000,	188.483,	174.665,	188.071,	173.172,	185.436,	186.979,	177.428,	172.117
01/02/2017,	11:30:00,	24.414,	21.500,	1017.700,	0.000,	3.849,	0.311,	0.079,	3.263,	0.286,	0.062,	0.038,	733.717,	703.434,	1201.884,	217.934,	4.097,	0.869,	3.876,	0.810,	5.152,	0.896,	5.476,	0.892,	0.968,	0.433,	0.825,	0.375,	0.844,	0.417,	0.919,	0.414,	0.000,	188.286,	174.033,	186.841,	173.648,	186.225,	187.607,	176.452,	171.575
01/02/2017,	11:45:00,	24.316,	21.400,	1017.456,	0.000,	3.873,	0.326,	0.085,	3.284,	0.295,	0.076,	0.048,	732.325,	703.209,	1200.525,	217.943,	3.952,	0.904,	3.851,	0.831,	5.202,	0.919,	5.568,	0.989,	0.913,	0.414,	0.785,	0.364,	0.846,	0.428,	0.899,	0.385,	0.000,	188.379,	174.651,	187.055,	173.096,	185.148,	188.021,	175.876,	170.919
01/02/2017,	12:00:00,	24.414,	21.300,	1017.639,	0.000,	3.916,	0.298,	0.079,	3.234,	0.245,	0.060,	0.043,	735.107,	703.944,	1203.746,	217.967,	4.050,	0.878,	3.803,	0.747,	5.144,	0.878,	5.607,	0.944,	0.978,	0.398,	0.788,	0.352,	0.819,	0.415,	0.861,	0.379,	0.000,	188.762,	174.754,	187.472,	173.969,	185.415,	186.994,	177.615,	171.616
01/02/2017,	12:15:00,	24.292,	21.200,	1017.639,	0.000,	3.905,	0.313,	0.076,	3.234,	0.254,	0.053,	0.033,	733.157,	705.359,	1202.382,	218.847,	4.044,	0.854,	3.846,	0.775,	5.244,	0.891,	5.491,	0.944,	0.910,	0.411,	0.739,	0.352,	0.812,	0.394,	0.882,	0.359,	0.000,	188.053,	174.597,	187.322,	174.588,	185.796,	187.733,	176.111,	171.811
01/02/2017,	12:30:00,	24.365,	21.100,	1017.456,	0.000,	3.859,	0.309,	0.078,	3.185,	0.215,	0.039,	0.027,	732.619,	705.195,	1201.853,	218.595,	4.044,	0.900,	3.822,	0.781,	5.386,	0.894,	5.519,	0.946,	0.999,	0.432,	0.708,	0.314,	0.776,	0.355,	0.793,	0.363,	0.000,	187.956,	174.190,	187.021,	173.127,	185.715,	188.995,	176.032,	172.190
01/02/2017,	12:45:00,	24.316,	21.000,	1017.822,	0.000,	3.943,	0.374,	0.111,	3.416,	0.298,	0.072,	0.056,	731.984,	701.566,	1198.639,	217.519,	4.022,	0.912,	3.938,	0.807,	5.347,	0.957,	5.571,	0.968,	0.999,	0.420,	0.779,	0.362,	0.888,	0.434,	0.852,	0.411,	0.000,	187.497,	173.876,	186.892,	172.683,	185.013,	187.143,	176.827,	171.457
01/02/2017,	13:00:00,	24.243,	20.900,	1017.578,	0.000,	3.946,	0.313,	0.080,	3.299,	0.238,	0.056,	0.033,	735.282,	705.100,	1203.950,	218.920,	4.052,	0.923,	3.950,	0.772,	5.358,	0.917,	5.513,	0.924,	0.943,	0.433,	0.788,	0.334,	0.842,	0.390,	0.856,	0.387,	0.000,	188.387,	174.787,	187.552,	173.703,	185.966,	187.871,	177.558,	172.181
01/02/2017,	13:15:00,	24.341,	20.800,	1017.517,	0.000,	3.873,	0.322,	0.095,	3.343,	0.298,	0.080,	0.057,	731.657,	704.031,	1199.913,	218.713,	4.014,	0.923,	3.862,	0.840,	5.186,	0.944,	5.427,	0.989,	0.946,	0.388,	0.821,	0.356,	0.928,	0.452,	0.879,	0.410,	0.000,	187.393,	173.998,	187.301,	173.960,	184.979,	187.581,	176.134,	172.058
01/02/2017,	13:30:00,	24.316,	20.700,	1017.700,	0.000,	4.002,	0.315,	0.093,	3.371,	0.279,	0.060,	0.043,	733.020,	703.246,	1200.933,	218.075,	3.996,	0.907,	3.886,	0.790,	5.356,	0.944,	5.585,	1.008,	0.936,	0.438,	0.769,	0.381,	0.847,	0.403,	0.878,	0.406,	0.000,	187.428,	174.295,	186.910,	172.744,	185.779,	187.544,	177.186,	172.185
01/02/2017,	13:45:00,	24.194,	20.600,	1017.761,	0.000,	3.972,	0.359,	0.093,	3.166,	0.263,	0.060,	0.039,	733.922,	703.408,	1201.766,	218.295,	3.977,	0.908,	3.868,	0.821,	5.222,	0.859,	5.542,	0.917,	0.980,	0.420,	0.785,	0.358,	0.851,	0.411,	0.859,	0.398,	0.000,	188.390,	174.650,	187.675,	173.034,	185.621,	187.479,	176.483,	171.585
01/02/2017,	14:00:00,	24.170,	20.500,	1017.761,	0.000,	3.894,	0.336,	0.100,	3.233,	0.325,	0.079,	0.055,	731.642,	703.803,	1200.262,	218.222,	3.993,	0.906,	3.800,	0.830,	5.160,	0.890,	5.381,	0.955,	0.966,	0.422,	0.829,	0.388,	0.856,	0.424,	0.908,	0.403,	0.000,	187.811,	174.595,	186.175,	173.326,	185.728,	187.777,	176.080,	171.534
01/02/2017,	14:15:00,	24.072,	20.400,	1018.005,	0.000,	3.883,	0.357,	0.093,	3.216,	0.287,	0.061,	0.046,	733.769,	703.963,	1202.325,	218.040,	4.031,	0.922,	3.949,	0.836,	5.197,	0.907,	5.525,	0.950,	0.997,	0.432,	0.815,	0.393,	0.895,	0.426,	0.899,	0.375,	0.000,	187.890,	173.865,	187.929,	173.938,	185.465,	187.930,	176.651,	171.619
01/02/2017,	14:30:00,	24.121,	20.300,	1017.700,	0.000,	3.996,	0.318,	0.076,	3.338,	0.280,	0.061,	0.043,	734.354,	705.844,	1204.635,	218.203,	4.133,	0.962,	3.816,	0.863,	5.315,	0.920,	5.615,	1.036,	0.990,	0.415,	0.785,	0.363,	0.911,	0.431,	0.889,	0.421,	0.000,	188.579,	174.715,	187.012,	173.782,	186.086,	188.838,	176.929,	172.006
01/02/2017,	14:45:00,	24.170,	20.300,	1017.700,	0.000,	4.018,	0.285,	0.089,	3.275,	0.286,	0.076,	0.046,	736.205,	705.072,	1204.320,	219.751,	4.083,	0.954,	3.856,	0.842,	5.284,	0.919,	5.545,	0.963,	0.937,	0.397,	0.743,	0.343,	0.844,	0.401,	0.837,	0.369,	0.000,	189.396,	174.861,	187.800,	173.695,	185.715,	187.984,	177.580,	171.986
01/02/2017,	15:00:00,	24.048,	20.200,	1017.395,	0.000,	3.913,	0.324,	0.081,	3.306,	0.255,	0.060,	0.037,	735.108,	707.081,	1205.638,	219.328,	4.016,	0.887,	3.853,	0.820,	5.209,	0.951,	5.516,	0.914,	0.907,	0.382,	0.783,	0.361,	0.938,	0.432,	0.836,	0.398,	0.000,	188.168,	175.075,	187.520,	174.099,	186.702,	189.385,	176.884,	171.987
01/02/2017,	15:15:00,	24.121,	20.100,	1017.517,	0.000,	4.077,	0.345,	0.117,	3.385,	0.303,	0.083,	0.067,	736.870,	708.647,	1207.815,	220.611,	3.990,	0.944,	3.989,	0.899,	5.213,	0.949,	5.608,	1.018,	0.931,	0.430,	0.775,	0.366,	0.880,	0.420,	0.850,	0.410,	0.000,	189.466,	175.934,	188.065,	174.688,	186.450,	188.675,	177.264,	172.949
01/02/2017,	15:30:00,	23.999,	20.000,	1017.639,	0.000,	4.061,	0.309,	0.082,	3.398,	0.292,	0.073,	0.042,	733.874,	705.018,	1203.047,	218.480,	3.994,	0.938,	3.918,	0.841,	5.328,	0.908,	5.697,	1.029,	0.984,	0.442,	0.788,	0.387,	0.809,	0.379,	0.905,	0.421,	0.000,	188.321,	174.523,	186.898,	174.072,	186.342,	188.643,	176.617,	171.348
01/02/2017,	15:45:00,	23.926,	19.900,	1017.517,	0.000,	4.008,	0.296,	0.079,	3.313,	0.280,	0.060,	0.039,	733.875,	706.077,	1204.047,	218.807,	4.014,	0.926,	3.848,	0.856,	5.232,	0.915,	5.427,	0.917,	1.013,	0.418,	0.793,	0.382,	0.882,	0.448,	0.856,	0.384,	0.000,	188.820,	174.863,	187.068,	173.064,	185.775,	189.036,	176.451,	172.583
01/02/2017,	16:00:00,	23.901,	19.800,	1017.578,	0.000,	4.009,	0.317,	0.080,	3.325,	0.302,	0.068,	0.042,	736.090,	706.005,	1205.408,	219.257,	4.042,	0.914,	4.020,	0.845,	5.235,	0.979,	5.723,	1.000,	0.899,	0.410,	0.780,	0.367,	0.872,	0.431,	0.913,	0.417,	0.000,	189.122,	174.928,	187.443,	173.091,	186.388,	189.081,	177.400,	172.425
01/02/2017,	16:15:00,	23.877,	19.700,	1017.517,	0.000,	3.996,	0.336,	0.087,	3.296,	0.288,	0.068,	0.043,	735.471,	707.233,	1206.370,	219.161,	3.837,	0.865,	3.950,	0.848,	5.160,	0.850,	5.568,	0.994,	0.956,	0.431,	0.757,	0.358,	0.891,	0.409,	0.929,	0.403,	0.000,	189.331,	174.677,	186.888,	174.577,	186.024,	188.734,	177.489,	172.717
01/02/2017,	16:30:00,	23.853,	19.700,	1017.273,	0.000,	3.981,	0.315,	0.078,	3.282,	0.249,	0.055,	0.034,	734.652,	708.318,	1207.167,	218.535,	3.997,	0.889,	3.968,	0.835,	5.054,	0.862,	5.569,	0.923,	0.977,	0.416,	0.779,	0.332,	0.840,	0.430,	0.880,	0.389,	0.000,	188.022,	175.672,	187.263,	174.055,	186.934,	189.111,	176.676,	172.919
01/02/2017,	16:45:00,	23.926,	19.600,	1017.090,	0.000,	4.000,	0.303,	0.066,	3.218,	0.237,	0.055,	0.026,	737.359,	707.762,	1207.484,	220.247,	4.061,	0.887,	3.834,	0.821,	5.394,	0.884,	5.462,	1.002,	0.920,	0.390,	0.783,	0.338,	0.822,	0.391,	0.908,	0.373,	0.000,	189.439,	175.715,	188.154,	174.364,	186.610,	188.412,	177.377,	172.623
01/02/2017,	17:00:00,	23.901,	19.500,	1017.273,	0.000,	4.037,	0.362,	0.095,	3.383,	0.295,	0.075,	0.041,	734.894,	706.343,	1205.271,	218.827,	4.003,	0.983,	3.895,	0.904,	5.295,	0.956,	5.685,	0.973,	0.969,	0.422,	0.787,	0.386,	0.840,	0.431,	0.875,	0.444,	0.000,	188.312,	174.713,	187.607,	174.321,	186.173,	189.289,	177.138,	171.577
01/02/2017,	17:15:00,	23.828,	19.400,	1017.090,	0.000,	3.987,	0.346,	0.082,	3.324,	0.295,	0.070,	0.040,	733.986,	705.939,	1203.398,	219.033,	4.117,	0.905,	3.891,	0.866,	5.410,	0.920,	5.678,	1.035,	0.958,	0.467,	0.824,	0.392,	0.817,	0.386,	0.908,	0.417,	0.000,	189.160,	174.726,	186.726,	173.373,	185.937,	189.568,	176.431,	171.780
01/02/2017,	17:30:00,	23.926,	19.200,	1017.029,	0.000,	4.051,	0.311,	0.096,	3.397,	0.274,	0.063,	0.045,	736.131,	705.462,	1204.793,	219.383,	4.139,	0.898,	3.986,	0.881,	5.269,	0.919,	5.572,	1.004,	0.946,	0.432,	0.820,	0.375,	0.804,	0.381,	0.918,	0.411,	0.000,	189.492,	175.419,	188.443,	173.532,	185.885,	188.292,	176.629,	171.790
01/02/2017,	17:45:00,	23.853,	19.100,	1017.395,	0.000,	3.850,	0.278,	0.061,	3.154,	0.220,	0.048,	0.024,	733.346,	704.261,	1202.919,	217.504,	4.060,	0.841,	3.819,	0.797,	5.268,	0.900,	5.299,	0.898,	0.906,	0.371,	0.767,	0.328,	0.803,	0.354,	0.835,	0.358,	0.000,	187.914,	174.962,	187.380,	173.058,	184.658,	187.475,	177.450,	172.035